Flag for Romania Weather past 2 weeks in Oradea, Romania

Now
73 °F

Sunny.


Feels Like: 77 °F
Forecast: 56 / 75 °F
Wind: 10 mph from Southwest

Location: Oradea Airport

Current Time: Apr 26, 2015 at 3:06:47 PM

Latest Report: Apr 26, 2015 at 2:30 PM


Visibility: 10 mi

Pressure: 29.89 "Hg

Humidity: 33%

Dew point: 43 °F

Location of OradeaLocation

Historic Weather in Oradea — Graph

°F

Oradea temperature yesterday

Maximum temperature yesterday: 75 °F (at 4:30 PM)
Minimum temperature yesterday: 43 °F (at 6:00 AM)
Average temperature yesterday: 61 °F

Past Weeks' High & Low Weather Summary

 TemperatureHumidityPressure
High79 °F (Apr 16, 3:00 PM)94% (Apr 17, 10:00 PM)30.30 "Hg (Apr 17, 10:00 PM)
Low28 °F (Apr 19, 6:30 AM)15% (Apr 11, 5:00 PM)29.77 "Hg (Apr 17, 6:00 PM)
Average56 °F51%30.07 "Hg
* Reported Apr 11 2:00 PM — Apr 26 2:00 PM, Oradea, Weather by CustomWeather, © 2015

Note: Actual official high and low records may vary slightly from our data, if they occured in-between our weather recording intervals... More about our weather records

Advertising

Oradea weather history for previous 24 hours

 ConditionsComfort  
Time TempWeatherWind HumidityBarometerVisibility
2:00 PM
Sun, Apr 26
73 °FPartly sunny.7 mph33%29.89 "HgN/A
1:30 PM72 °FScattered clouds.9 mph38%29.89 "HgN/A
1:00 PM73 °FPassing clouds.10 mph33%29.89 "HgN/A
12:30 PM72 °FSunny.9 mph38%29.92 "Hg10 mi
12:00 PM70 °FPassing clouds.8 mph40%29.92 "HgN/A
11:30 AM72 °FPassing clouds.8 mph41%29.92 "HgN/A
11:00 AM68 °FPassing clouds.9 mph46%29.92 "HgN/A
10:30 AM68 °FPassing clouds.10 mph43%29.92 "HgN/A
10:00 AM66 °FPassing clouds.6 mph49%29.92 "HgN/A
9:30 AM63 °FPassing clouds.5 mph59%29.92 "HgN/A
9:00 AM59 °FSunny.7 mph63%29.95 "Hg10 mi
8:30 AM55 °FSunny.8 mph67%29.95 "Hg10 mi
8:00 AM54 °FSunny.8 mph67%29.95 "Hg10 mi
7:30 AM52 °FSunny.7 mph72%29.92 "Hg10 mi
7:00 AM48 °FClear.7 mph76%29.92 "Hg10 mi
6:30 AM48 °FCool.7 mph76%29.92 "HgN/A
6:00 AM46 °FCool.7 mph82%29.92 "HgN/A
5:30 AM46 °FCool.8 mph82%29.92 "HgN/A
5:00 AM48 °FCool.6 mph76%29.92 "HgN/A
4:00 AM50 °FCool.7 mph76%29.92 "HgN/A
3:00 AM50 °FCool.6 mph76%29.95 "HgN/A
2:00 AM52 °FCool.7 mph72%29.95 "HgN/A
1:00 AM54 °FCool.7 mph67%29.95 "HgN/A
12:00 AM55 °FCool.7 mph63%29.95 "HgN/A
11:30 PM
Sat, Apr 25
54 °FCool.5 mph67%29.95 "HgN/A
11:00 PM55 °FCool.6 mph63%29.98 "HgN/A
10:30 PM55 °FCool.5 mph63%29.98 "HgN/A
10:00 PM57 °FPassing clouds.6 mph59%29.98 "HgN/A
9:30 PM61 °FRefreshingly cool.8 mph52%29.95 "HgN/A
9:00 PM64 °FSunny.8 mph46%29.95 "Hg10 mi
8:30 PM63 °FPassing clouds.7 mph52%29.95 "HgN/A
8:00 PM66 °FSunny.7 mph46%29.95 "Hg10 mi
7:30 PM70 °FSunny.6 mph40%29.95 "Hg10 mi
7:00 PM72 °FSunny.9 mph29%29.95 "Hg10 mi
6:30 PM73 °FSunny.8 mph29%29.95 "Hg10 mi
6:00 PM73 °FPassing clouds.9 mph23%29.95 "HgN/A
5:30 PM73 °FPassing clouds.9 mph27%29.95 "HgN/A
5:00 PM73 °FPassing clouds.7 mph29%29.95 "HgN/A
4:30 PM75 °FPassing clouds.7 mph27%29.98 "HgN/A
4:00 PM73 °FPassing clouds.7 mph31%29.98 "HgN/A
3:30 PM73 °FPassing clouds.7 mph31%29.98 "HgN/A
3:00 PM73 °FSunny.7 mph31%30.01 "Hg10 mi
Weather by CustomWeather, © 2015

See weather overviewHow to use our weather pages